Вернуться в каталог

STARLINK-32593

АктивенСвязьVLEO
NORAD 61974·PAYLOAD·🇺🇸 United States

Запущен Nov 14, 2024 с Cape Canaveral Space Force Station

Loading…

Ближайшие Пролёты (ближайшие 24 часа)

TLE

СвежийSource: CelesTrak SupGP

Эпоха: Sep 14, 2026, 21:35 UTC

1 61974C 24210R   26257.89979167  .00001575  00000+0  57026-4 0  2572
2 61974  42.9995 191.6753 0001294 263.5497  51.7345 15.27588094    16

Отслеживайте STARLINK-32593 в реальном времени с AllMySat

Download on the App Store